This is the latest recevied weather packets stored in our database for station/object WW3TRG. If no packets are shown the sender has not sent any weather packets the latest 10 day(s).
| Time | Temp. | Humidity | Pressure | Rain* | Wind** | Luminosity | Snow |
|---|---|---|---|---|---|---|---|
| 1777879338 | 1.67° C | 96% | 1013.1 hPa | 0 mm | - | 0 W/m² | - |
| 1777879035 | 1.67° C | 96% | 1013.1 hPa | 0 mm | - | 0 W/m² | - |
| 1777878732 | 1.67° C | 96% | 1013.1 hPa | 0 mm | - | 0 W/m² | - |
| 1777878430 | 1.67° C | 96% | 1013.1 hPa | 0 mm | - | 0 W/m² | - |
| 1777878125 | 1.67° C | 96% | 1013.2 hPa | 0 mm | - | 0 W/m² | - |
| 1777877822 | 2.22° C | 96% | 1013.3 hPa | 0 mm | - | 0 W/m² | - |
| 1777877519 | 2.22° C | 96% | 1013.2 hPa | 0 mm | - | 0 W/m² | - |
| 1777877215 | 2.22° C | 95% | 1013.1 hPa | 0 mm | - | 0 W/m² | - |
| 1777876913 | 2.22° C | 95% | 1013.2 hPa | 0 mm | - | 0 W/m² | - |
| 1777876611 | 2.22° C | 95% | 1012.9 hPa | 0 mm | - | 0 W/m² | - |
| 1777876309 | 2.78° C | 94% | 1013 hPa | 0 mm | - | 0 W/m² | - |
| 1777876004 | 2.78° C | 94% | 1012.9 hPa | 0 mm | - | 0 W/m² | - |
| 1777875700 | 2.22° C | 94% | 1013.2 hPa | 0 mm | - | 0 W/m² | - |
| 1777875397 | 2.78° C | 94% | 1013 hPa | 0 mm | - | 0 W/m² | - |
| 1777875094 | 2.78° C | 93% | 1013.1 hPa | 0 mm | - | 0 W/m² | - |
| 1777874791 | 2.78° C | 93% | 1013.1 hPa | 0 mm | - | 0 W/m² | - |
| 1777874486 | 2.78° C | 93% | 1013.1 hPa | 0 mm | - | 0 W/m² | - |
| 1777874184 | 2.78° C | 93% | 1013.1 hPa | 0 mm | - | 0 W/m² | - |
| 1777873881 | 2.78° C | 92% | 1012.9 hPa | 0 mm | - | 0 W/m² | - |
| 1777873578 | 3.33° C | 92% | 1013 hPa | 0 mm | - | 0 W/m² | - |
| 1777873275 | 3.33° C | 92% | 1012.9 hPa | 0 mm | - | 0 W/m² | - |
| 1777872972 | 3.33° C | 91% | 1013.1 hPa | 0 mm | - | 0 W/m² | - |
| 1777872669 | 3.89° C | 91% | 1013.1 hPa | 0 mm | - | 0 W/m² | - |
| 1777872366 | 3.33° C | 90% | 1013.1 hPa | 0 mm | - | 0 W/m² | - |
| 1777872064 | 3.89° C | 89% | 1013 hPa | 0 mm | - | 0 W/m² | - |
* Rain latest hour (hover to see other rain measurements)
** Current wind speed in m/s (hover to see current wind gust speed)